Skip Page Navigation
NASA JPL Caltech
NASA Logo - Jet Propulsion Laboratory + View the NASA Portal
+ Center for Near-Earth Object Studies
JPL Home Earth Solar System Stars & Galaxies Technology
JPL Solar System Dynamics
BODIES ORBITS EPHEMERIDES TOOLS PHYSICAL DATA DISCOVERY FAQ SITE MAP
IMPORTANT: The SSD Announcement email list is now available. Major changes are coming in the near future, including possible hostname and/or URL changes. To be notified of such changes, subscribe to this email list.

Please visit this page for more details.


JPL Small-Body Database Browser
Search: [ help ]  
1917 Cuyo (1968 AA)
Classification: Amor [NEO]          SPK-ID: 2001917
Ephemeris | Orbit Diagram | Orbital Elements | Mission Design | Physical Parameters | Discovery Circumstances | Close-Approach Data ]

[ show orbit diagram ]
Orbital Elements at Epoch 2458600.5 (2019-Apr-27.0) TDB
Reference: JPL 407 (heliocentric ecliptic J2000)
 Element Value Uncertainty (1-sigma)   Units 
e .5056043637794707 3.3273e-08  
a 2.148813259479384 5.4118e-09 au
q 1.062363898539419 7.1866e-08 au
i 23.96210856190418 4.5055e-06 deg
node 188.3112290381987 8.2993e-06 deg
peri 194.5301336175624 8.9167e-06 deg
M 129.4029355278666 6.8536e-06 deg
tp 2458186.940437345420
(2018-Mar-09.44043735)
2.0661e-05 TDB
period 1150.526005830736
3.15
4.3464e-06
1.19e-08
d
yr
n .3129003587711712 1.1821e-09 deg/d
Q 3.235262620419348 8.1481e-09 au
  Orbit Determination Parameters
   # obs. used (total)      2041  
   # delay obs. used      0  
   # Doppler obs. used      2  
   data-arc span      23769 days (65.08 yr)  
   first obs. used      1954-05-06  
   last obs. used      2019-06-03  
   planetary ephem.      DE431  
   SB-pert. ephem.      SB431-N16  
   condition code      0  
   norm. resid. RMS      .46097  
   source      ORB  
   producer      Otto Matic  
   solution date      2019-Jul-17 06:13:22  

Additional Information
 Earth MOID = .071629 au 
 Jupiter MOID = 2.24117 au 
 T_jup = 3.435 
[ show covariance matrix ]

Ephemeris | Orbit Diagram | Orbital Elements | Mission Design | Physical Parameters | Discovery Circumstances | Close-Approach Data ]

Physical Parameter Table
Parameter Symbol Value Units Sigma Reference Notes
absolute magnitude H 13.9   n/a PDS3 (MPC 17263)  
diameter diameter 5.7 km n/a Hazards due to Comets and Asteroids (1994), Ed. T. Gehrels, pp.540-543 based on assumed medium albedo (0.15)
rotation period rot_per 2.6890 h n/a LCDB (Rev. 2019-January); Warner et al., 2009 Published Reference List:
[Velichko, F.P.; Lupishko, D.F.; Shevchenko, V.G. (1989) Astron. Tsirk. 1541, 35-36.]
[Hoffmann, M.; Rebhan, H.; Neukum, G.; Geyer, E.H. (1993) Acta Astronomica 43, 61-67.]
[Wisniewski, W.Z.; Michalowski, T.M.; Harris, A.W.; McMillan, R.S. (1997) Icarus 126, 395-449; 1995, Lunar & Planetary Sci. XXVI, 1511-1512.]
[Behrend, R. (2008) Observatoire de Geneve web site, http://obswww.unige.ch/~behrend/page_cou.html]
[Warner, Brian D. (2014) Minor Planet Bull. 41, 213-224.]
[Warner, B.D. (2015) Minor Planet Bull. 42, 41-53.]
[Warner, B.D. (2017) Minor Planet Bull. 44, 335-344.]
geometric albedo albedo 0.195   0.032 urn:nasa:pds:neowise_diameters_albedos::2.0[neos] (http://adsabs.harvard.edu/abs/2015ApJ...814..117N)  
SMASSII spectral type spec_B Sl   n/a EAR-A-5-DDR-TAXONOMY-V4.0 based on a high-resolution spectrum by Xu et al. (1995) or Bus and Binzel (2002)

1917 Cuyo (1968 AA)          Discovered 1968-Jan-01 by Cesco, C. U. and Samuel, A. at El Leoncito
Reference: DISCOVERY.DBLast Updated: 2003-08-29

[ show close-approach data ]
Ephemeris | Orbit Diagram | Orbital Elements | Mission Design | Physical Parameters | Discovery Circumstances | Close-Approach Data ]
ABOUT SSD CREDITS/AWARDS PRIVACY/COPYRIGHT GLOSSARY LINKS
FirstGov
(server date/time)  
NASA Home Page
Site Manager:   Ryan S. Park
Webmaster  Alan B. Chamberlin